Wind_Speed
15 14 14 12 11 10 10 10 10 11 11 11 12 11 10 6 2 3 2 2 3 4 4 4 5 5 5 7 8 9 11 12 12 11 12 15 15 14 14 14 15 17
15 16 16 14 14 12 10 9 9 10 10 8 6 4 2 2 3 3 1 2 2 4 5 5 4 3 4 5 6 9 11 10 10 12 15 15 13 13 13 13 15 16
16 16 16 15 15 14 11 9 7 5 3 4 5 5 4 2 1 3 4 2 1 2 4 4 3 4 4 4 6 9 9 9 11 13 13 11 12 13 12 12 13 15
17 16 15 13 14 16 14 11 9 7 6 6 6 5 4 2 4 5 4 4 3 3 4 4 5 6 5 5 8 9 8 9 12 12 11 10 12 12 12 13 14 14
17 16 15 13 12 12 11 10 10 10 9 7 6 4 2 3 3 3 5 6 5 5 5 5 6 7 6 7 9 9 7 8 11 11 10 11 12 13 13 14 14 15
18 16 15 14 13 11 9 8 8 8 8 7 6 3 8 8 4 2 2 4 6 7 6 5 6 7 7 8 9 9 7 8 10 11 11 12 13 13 13 14 14 15
19 18 15 12 11 10 10 9 8 8 6 5 6 9 10 7 5 5 5 5 7 7 7 7 7 7 8 8 9 9 9 9 11 12 13 14 14 14 14 15 15 15
19 20 18 14 11 10 10 9 8 8 5 8 11 10 9 7 8 8 8 7 6 6 7 8 8 7 8 9 9 10 10 10 12 13 14 14 14 15 15 15 14 14
18 21 21 18 14 12 12 11 9 9 8 12 12 10 10 10 9 7 6 6 5 6 7 8 8 9 9 9 10 11 11 12 14 14 14 14 14 15 14 14 14 14
16 20 20 17 14 12 11 8 6 9 14 13 11 12 11 10 8 7 7 6 7 8 9 9 9 9 9 10 11 11 12 13 14 13 13 13 14 14 13 13 14 14
15 17 15 14 13 12 8 5 8 14 16 14 13 13 11 9 7 7 8 8 9 9 9 9 9 9 10 10 10 11 13 13 13 13 13 13 13 13 13 13 13 14
13 14 13 12 11 10 9 9 11 13 14 15 15 12 11 10 9 9 10 10 10 10 9 9 9 9 10 10 10 11 12 13 13 13 13 13 13 13 13 13 12 14
14 14 14 13 11 9 11 11 11 12 13 14 13 11 12 12 10 10 10 10 10 10 9 9 9 10 11 10 10 10 12 12 12 13 13 13 13 13 13 12 12 14
16 15 15 14 13 12 13 13 12 13 13 12 12 11 12 11 11 11 11 11 11 10 9 9 8 10 11 10 10 10 11 12 12 12 12 12 12 12 13 13 12 13
17 16 16 15 15 15 15 15 14 14 13 12 12 12 12 12 12 12 12 12 12 10 9 9 9 10 10 10 9 9 9 10 11 12 12 12 12 11 12 13 13 13
18 18 17 16 17 18 17 16 15 13 13 13 14 14 15 14 13 13 13 13 12 10 9 9 10 12 12 11 11 9 9 9 10 12 12 13 12 12 12 13 13 13
19 19 19 18 18 18 17 16 15 14 15 16 16 16 15 15 14 14 14 13 12 11 10 10 12 13 13 12 11 10 10 9 9 11 12 12 12 12 12 12 12 12
20 21 21 18 17 17 16 16 16 16 17 17 17 16 16 15 15 14 14 13 12 12 12 12 13 13 12 12 12 11 11 11 10 10 11 12 12 12 12 12 12 12
22 22 22 19 17 16 15 16 17 17 17 17 17 17 16 16 15 15 14 13 13 13 12 11 12 13 12 12 12 12 12 12 11 11 11 12 11 12 11 12 13 13
23 23 22 20 18 17 16 17 18 18 18 18 18 18 17 17 15 15 15 14 13 13 12 11 12 13 13 13 12 12 13 13 11 11 11 12 13 15 15 13 13 13
23 23 22 20 19 18 17 18 18 19 19 19 19 18 17 17 16 16 15 14 13 12 11 11 12 11 11 11 11 11 13 13 12 11 13 14 15 17 20 18 14 13
24 23 22 21 20 19 19 19 20 20 20 20 20 18 18 17 17 16 16 14 13 12 11 11 11 11 10 9 10 11 12 12 11 11 11 11 11 13 19 21 18 15
25 24 23 22 22 21 20 21 21 21 21 21 21 20 19 18 17 16 16 15 13 11 10 11 11 10 9 8 9 11 12 10 9 9 8 8 9 9 14 20 20 18
25 24 24 23 23 22 22 22 22 22 21 22 22 21 19 18 18 17 15 14 13 11 10 10 11 9 8 7 8 10 11 10 8 8 7 8 10 11 12 16 19 20
24 24 24 25 24 23 22 23 23 22 22 22 21 21 20 18 17 17 15 13 12 11 10 10 10 9 7 7 7 8 9 9 8 8 8 9 11 13 13 14 17 19
24 25 25 25 25 23 23 23 23 23 23 22 21 19 19 17 16 15 14 13 12 11 9 9 9 9 8 7 7 8 9 9 8 8 8 10 12 13 13 13 16 19
Wind_Direction
187 188 192 199 206 205 207 203 200 203 205 212 213 205 204 199 70 10 312 301 347 353 349 6 352 341 350 334 332 347 340 334 339 342 347 350 348 345 344 349 358 3
187 187 190 192 197 207 217 216 220 219 196 201 251 271 238 260 299 273 182 106 26 14 24 28 16 0 354 342 346 351 343 339 345 348 349 352 358 357 355 358 2 6
191 188 190 193 193 191 201 215 233 258 214 199 262 262 232 257 18 105 125 113 35 43 53 51 32 15 17 8 354 353 353 355 357 359 1 6 7 2 2 2 4 11
193 189 191 199 195 180 182 196 198 212 226 220 231 244 240 294 42 82 99 79 86 111 94 73 48 33 24 358 355 4 12 11 9 13 16 14 9 7 8 8 9 12
192 190 192 199 198 186 185 196 195 196 205 211 226 244 182 109 72 85 85 74 89 110 93 62 42 40 25 5 14 24 27 22 19 19 19 18 17 17 15 14 16 13
191 192 195 195 187 188 201 208 205 202 204 214 218 154 116 117 117 118 97 84 88 86 74 42 32 45 37 28 35 36 33 30 22 20 25 25 24 25 24 23 22 18
187 187 193 192 170 174 206 216 213 217 211 177 137 109 107 117 111 96 92 92 87 76 66 50 44 54 51 43 42 37 35 32 24 27 35 33 29 31 31 27 24 24
186 182 181 185 177 182 209 214 216 228 197 125 118 112 108 110 106 101 102 102 94 79 69 59 55 60 54 48 43 36 34 33 30 34 37 33 30 31 31 28 25 26
184 177 170 173 181 192 204 212 223 217 160 123 119 117 110 110 113 113 116 110 91 74 71 66 64 63 54 47 43 37 37 39 37 36 37 34 29 28 29 27 29 31
158 159 159 163 177 194 206 217 207 158 139 128 121 117 117 124 123 114 111 104 88 79 77 72 66 61 54 49 44 40 43 43 40 38 37 35 30 27 28 31 34 35
139 146 158 166 178 191 193 176 137 132 134 136 135 130 126 126 121 111 104 97 89 84 79 72 66 63 59 53 49 47 48 46 42 41 39 34 29 28 32 35 39 38
158 157 169 178 184 180 163 150 144 142 142 146 148 142 130 122 116 109 102 96 94 87 79 75 71 69 65 60 58 54 50 48 44 41 39 34 30 33 36 36 41 42
178 174 180 186 185 168 156 157 160 158 156 154 153 147 135 129 120 109 103 102 100 90 79 76 76 82 79 68 65 59 52 50 45 41 39 35 33 37 37 36 42 44
180 180 184 184 176 166 165 170 169 166 163 158 153 147 138 129 118 111 107 102 97 88 78 69 75 95 95 79 72 66 55 50 44 41 39 36 36 38 37 36 39 39
175 176 179 176 170 167 171 175 172 168 164 154 145 136 128 124 121 118 113 105 97 91 80 65 69 91 98 97 96 79 59 50 45 41 40 40 40 38 37 37 36 33
172 172 171 169 167 170 174 175 172 165 153 141 135 132 131 130 125 118 112 105 99 93 80 71 81 93 100 106 106 87 67 59 48 42 42 43 42 38 35 35 34 32
171 169 167 166 168 172 174 171 164 152 143 139 137 136 133 128 121 115 111 108 104 97 86 85 97 104 106 105 98 83 73 64 51 44 44 44 44 42 38 32 29 30
170 167 166 167 169 172 170 163 155 145 142 141 138 134 129 124 121 119 116 113 108 99 93 97 104 106 106 103 95 83 73 65 56 50 48 49 48 45 39 30 26 24
169 167 167 168 168 167 161 155 151 145 143 141 136 133 130 127 125 122 120 117 112 104 99 105 111 110 106 102 96 86 77 72 66 58 56 54 48 43 35 26 24 22
169 167 169 169 166 161 156 153 150 145 142 140 138 136 133 130 129 126 124 122 117 110 108 114 117 115 112 107 99 90 81 75 69 66 67 65 57 50 41 32 30 28
169 168 169 167 163 160 156 152 148 145 144 143 140 137 135 134 131 128 127 125 120 113 112 119 123 120 117 110 100 92 86 80 78 80 82 76 65 54 44 40 42 42
170 170 168 164 161 161 156 150 148 148 147 144 140 136 136 135 133 132 131 128 124 118 115 122 127 125 119 110 101 98 95 94 92 90 87 77 63 50 41 39 44 50
173 170 166 163 162 161 155 150 151 150 147 145 141 138 138 138 135 136 135 131 128 123 120 127 131 130 123 113 108 106 104 107 106 96 89 76 63 54 41 36 42 52
174 170 166 164 164 160 154 152 152 150 148 148 144 140 140 140 138 137 135 133 130 125 124 131 134 136 131 118 117 120 120 123 119 105 100 89 74 67 50 38 44 55
173 171 167 164 161 157 153 153 152 150 149 149 145 142 141 139 139 137 135 133 132 127 126 131 133 137 136 123 121 128 129 129 122 109 107 102 87 76 62 48 51 61
171 170 167 163 159 154 152 154 153 150 149 146 142 139 138 136 136 134 134 134 132 128 127 133 137 137 133 126 122 122 123 124 117 104 99 99 91 80 68 60 62 68
Height
803 804 805 806 807 807 808 809 809 809 809 809 809 810 811 812 813 814 814 814 814 815 815 815 816 815 816 815 813 813 812 811 809 807 805 805 804 804 803 802 801 800
801 802 804 805 806 806 807 807 807 807 807 808 808 809 810 811 812 813 814 814 815 816 815 816 816 816 816 815 813 813 812 810 809 807 806 806 805 805 804 803 802 801
800 801 802 803 804 805 806 806 806 806 806 808 808 808 809 810 811 811 813 814 816 816 816 817 817 817 816 814 813 813 812 811 809 808 808 807 807 806 805 804 803 802
798 799 800 801 801 802 804 805 806 806 807 807 807 808 808 809 810 811 812 814 815 816 816 817 817 816 815 814 814 813 813 812 811 810 810 809 808 807 806 805 804 804
797 798 799 800 800 801 802 803 804 804 805 805 806 807 807 808 810 812 812 813 815 816 816 816 816 816 815 814 814 814 813 813 812 811 811 810 809 808 807 807 806 805
795 796 797 798 799 801 801 801 802 802 803 803 804 805 806 808 810 811 812 813 814 815 815 815 815 816 815 815 814 814 814 814 813 812 812 811 810 810 809 808 807 806
793 794 796 797 798 800 801 801 801 801 802 802 802 804 805 807 810 811 812 813 814 814 814 814 815 815 815 815 815 815 815 815 814 813 813 812 811 811 810 809 808 807
791 792 795 797 798 800 800 800 800 800 801 800 802 804 806 808 810 810 812 813 813 814 814 814 815 815 815 815 815 815 815 815 814 813 813 812 812 811 810 810 809 807
789 790 792 795 797 799 800 799 800 799 799 800 802 805 806 808 809 810 811 812 812 813 813 814 815 815 815 815 815 816 815 815 814 814 813 813 812 812 811 810 809 808
788 789 791 794 796 798 798 798 798 797 798 800 803 805 806 808 809 810 811 812 812 813 814 814 814 814 815 815 815 816 815 815 815 814 814 814 813 812 811 811 809 808
788 790 792 794 795 797 798 797 797 797 798 800 802 804 806 808 809 811 812 813 813 814 814 814 815 815 815 815 816 816 815 815 815 815 814 814 813 813 812 811 810 809
788 790 792 793 795 797 797 797 797 798 799 800 802 804 806 808 810 811 812 813 814 814 814 815 814 814 815 815 816 816 815 816 815 815 815 814 813 813 812 812 810 810
787 790 792 793 795 795 796 797 797 798 799 801 803 804 806 808 810 811 812 813 814 814 814 815 814 814 814 815 816 816 816 816 816 815 815 814 814 814 813 812 811 810
787 789 791 793 794 794 795 797 797 798 800 801 803 805 807 809 810 811 812 813 814 815 815 815 814 813 814 815 816 817 817 817 816 816 815 815 815 814 814 813 812 811
786 788 790 792 793 793 795 796 797 798 800 802 804 806 808 810 810 811 812 813 815 815 815 815 814 813 814 815 816 816 817 817 817 817 816 816 815 815 814 813 812 812
785 788 790 791 791 793 794 795 797 799 801 803 805 806 808 810 811 812 813 814 815 816 816 816 815 814 814 815 816 816 817 818 818 818 817 816 816 815 815 814 813 813
785 787 789 790 791 792 794 795 798 799 801 803 805 807 808 810 811 813 814 815 816 816 816 816 816 816 816 816 817 817 817 818 818 818 818 817 817 816 816 815 814 813
784 785 787 789 790 792 794 796 798 800 802 804 805 807 809 810 812 813 814 815 816 816 817 817 817 817 817 817 817 818 818 818 819 819 818 818 818 817 816 815 814 814
783 784 786 789 790 792 795 796 798 800 802 804 806 808 809 811 812 814 815 816 816 816 817 818 818 818 818 818 818 818 818 818 819 820 819 819 819 818 817 816 815 814
781 783 785 788 790 792 795 797 798 800 802 804 806 807 809 811 813 814 815 816 816 817 818 818 819 819 818 818 819 819 819 819 820 820 820 820 820 818 818 816 815 814
780 782 785 787 789 792 795 797 798 800 802 804 805 807 809 811 813 814 815 816 817 817 818 819 819 819 819 819 819 819 819 820 820 821 821 821 820 819 818 817 816 815
778 781 783 786 789 792 794 796 798 799 801 803 805 808 810 811 813 814 815 816 818 818 819 819 820 820 820 820 820 820 820 820 821 821 822 821 821 820 819 818 817 815
776 779 782 785 788 791 793 795 796 799 801 803 805 807 809 811 813 814 815 817 818 819 819 820 820 821 821 821 821 821 820 821 821 822 822 822 822 821 820 819 818 816
775 778 780 784 787 789 791 793 796 798 801 802 804 806 809 811 813 814 816 817 818 819 820 820 821 821 821 822 822 822 821 821 822 822 822 823 822 822 821 820 819 818
774 777 779 782 785 788 790 792 795 797 800 802 805 807 809 812 813 815 817 818 819 820 820 821 821 821 822 822 822 822 822 822 822 822 822 823 823 823 823 822 821 820
773 776 778 781 783 786 789 792 794 796 799 802 805 808 810 813 815 817 818 819 820 821 821 821 822 822 822 823 822 822 822 822 823 823 823 823 823 823 824 823 822 821